Weather Roundup
Issued by NWS Chicago, IL

Home | Current Version | Previous Version | Graphics & Text | Print | Product List | Glossary On
Versions: 1 2 3 4 5 6 7 8 9 10 11 12 13 14 15 16 17 18 19 20 21 22 23 24 25 26 27 28 29 30 31 32 33 34 35 36 37 38 39 40 41 42 43 44 45 46 47 48 49 50
000
NZUS59 KLOT 040608
HRRLOT

CHICAGO AREA WEATHER ROUNDUP
NATIONAL WEATHER SERVICE CHICAGO/ROMEOVILLE IL
100 AM CDT WED MAY 04 2016

NOTE: "FAIR" INDICATES FEW OR NO CLOUDS BELOW 12,000 FEET WITH NO
SIGNIFICANT WEATHER AND/OR OBSTRUCTIONS TO VISIBILITY.

* THESE STATIONS ARE NOT UNDER NWS QUALITY CONTROL. THEY ALSO MAY NOT
  REPORT WEATHER SUCH AS PRECIPITATION OR FOG.

ILZ005-006-012>014-019>023-040700-
NORTHEAST ILLINOIS

CITY           SKY/WX    TMP DP  RH WIND       PRES   REMARKS
OHARE          CLOUDY    57  42  57 SW15      29.61F
6HR MIN TEMP:  57; 6HR MAX TEMP:  63; 6HR PCP: TRACE;

MIDWAY         CLOUDY    59  40  49 SW16G24   29.64F
6HR MIN TEMP:  59; 6HR MAX TEMP:  65;

AURORA         TSTM      53  47  79 SE8       29.65S
6HR MIN TEMP:  53; 6HR MAX TEMP:  63; 6HR PCP:  0.12;

LANSING*       CLOUDY    56  39  52 SW13G18   29.67F
JOLIET*        LGT RAIN  54  49  84 SE8       29.66F
WAUKEGAN       LGT RAIN  52  47  83 N12G25    29.64R
6HR MIN TEMP:  52; 6HR MAX TEMP:  64; 6HR PCP: TRACE;

DUPAGE AIRPORT TSTM      54  44  69 SW12G21   29.62F
6HR MIN TEMP:  54; 6HR MAX TEMP:  63; 6HR PCP: TRACE;

WHEELING       CLOUDY    56  44  64 SW10      29.62F
6HR MIN TEMP:  56; 6HR MAX TEMP:  64; 6HR PCP:  0.01;

KANKAKEE*      CLOUDY    55  42  61 SW14      29.70F
MORRIS*        CLOUDY    57  43  59 SW17      29.64F
LEWIS AIRPORT* HVY RAIN  52  46  81 SW7       29.67S
$$

WIZ051-052-058>065-066-070>072-040700-
SOUTHEAST WISCONSIN

CITY           SKY/WX    TMP DP  RH WIND       PRES   REMARKS
MILWAUKEE      LGT RAIN  50  46  86 NE10      29.64F
6HR MIN TEMP:  50; 6HR MAX TEMP:  65; 6HR PCP: TRACE;

KENOSHA*       LGT RAIN  52  46  80 N8        29.64F
RACINE*        CLOUDY    50  46  86 N13       29.65F
BURLINGTON     RAIN      48  47  95 CALM      29.65F
WAUKESHA       CLOUDY    46  45  93 CALM      29.65S
WEST BEND      CLOUDY    46  45  93 NW3       29.65R
$$

INZ001>003-010>013-019-020-040700-
NORTHWEST INDIANA

CITY           SKY/WX    TMP DP  RH WIND       PRES   REMARKS
GARY*          MOCLDY    60  46  60 SW9       29.67F
6HR MIN TEMP:  60; 6HR MAX TEMP:  66;

MICHIGAN CITY* NOT AVBL
RENSSELAER*    NOT AVBL
VALPARAISO     CLOUDY    55  42  61 SW10      29.68F
$$

LMZ740>746-040700-
SOUTHERN LAKE MICHIGAN

STATION/POSITION TIME  SKY/WX   TEMP WIND        PRES    VSBY
                                AIR  DIR/SP/G
                 (UTC)          (F)  (DEG/KT/KT) (MB)    (MI)
HARRISON CRIB    0520            61  210/ 19/ 22   N/A
BURNHAM HARBOR   0600            59  200/  5/ 11   N/A
CALUMET HARBOR   0500            59  210/  8/ 11 1004.4F
BURNS HARBOR     0602            59  210/ 16/ 21 1004.7F
MICHIGAN CITY    0500            59  180/ 13/ 16   N/A
$$

ABBREVIATIONS USED IN REMARKS
   TC - TEMPERATURE IN CELSIUS
  WCI - WIND CHILL INDEX
   HX - HEAT INDEX
  VSB - VISIBILITY
$$



USA.gov is the U.S. government's official web portal to all federal, state and local government web resources and services.